| time (UTC) | temp F | wind direction | speed MPH | gust MPH | rain 1hr in | rain 24hr in | rain mn in | humidity % | barometer mb |
| 20260505000307 | 54 | 196 | 9.0 | 17.0 | 0.00 | 0.00 | 0.00 | 87 | 1010.6 |
| 20260504234807 | 54 | 200 | 8.0 | 14.0 | 0.00 | 0.00 | 0.00 | 87 | 1010.6 |
| 20260504234306 | 54 | 197 | 6.0 | 17.0 | 0.00 | 0.00 | 0.00 | 86 | 1010.6 |
| 20260504233807 | 55 | 193 | 9.0 | 20.0 | 0.00 | 0.00 | 0.00 | 86 | 1010.6 |
| 20260504233306 | 55 | 209 | 6.0 | 14.0 | 0.00 | 0.00 | 0.00 | 86 | 1010.6 |
| 20260504232807 | 55 | 197 | 8.0 | 14.0 | 0.00 | 0.00 | 0.00 | 86 | 1010.7 |
| 20260504232307 | 55 | 199 | 10.0 | 14.0 | 0.00 | 0.00 | 0.00 | 85 | 1010.6 |
| 20260504231807 | 55 | 200 | 9.0 | 16.0 | 0.00 | 0.00 | 0.00 | 85 | 1010.7 |
| 20260504231306 | 55 | 196 | 9.0 | 16.0 | 0.00 | 0.00 | 0.00 | 85 | 1010.6 |
| 20260504230307 | 55 | 213 | 7.0 | 13.0 | 0.00 | 0.00 | 0.00 | 84 | 1010.7 |
| 20260504225806 | 55 | 199 | 7.0 | 14.0 | 0.00 | 0.00 | 0.00 | 84 | 1010.5 |
| 20260504225306 | 56 | 195 | 8.0 | 15.0 | 0.00 | 0.00 | 0.00 | 84 | 1010.5 |
| 20260504223807 | 56 | 203 | 12.0 | 20.0 | 0.00 | 0.00 | 0.00 | 83 | 1010.5 |
| 20260504223306 | 56 | 216 | 9.0 | 16.0 | 0.00 | 0.00 | 0.00 | 83 | 1010.5 |
| 20260504222306 | 56 | 203 | 10.0 | 17.0 | 0.00 | 0.00 | 0.00 | 82 | 1010.4 |
| 20260504221806 | 56 | 199 | 10.0 | 17.0 | 0.00 | 0.00 | 0.00 | 83 | 1010.4 |
| 20260504221307 | 56 | 201 | 11.0 | 18.0 | 0.00 | 0.00 | 0.00 | 82 | 1010.4 |
| 20260504220807 | 56 | 201 | 10.0 | 20.0 | 0.00 | 0.00 | 0.00 | 82 | 1010.4 |
| 20260504220307 | 56 | 204 | 12.0 | 22.0 | 0.00 | 0.00 | 0.00 | 83 | 1010.3 |
| 20260504215306 | 56 | 198 | 14.0 | 24.0 | 0.00 | 0.00 | 0.00 | 82 | 1010.2 |
| 20260504214306 | 56 | 199 | 12.0 | 20.0 | 0.00 | 0.00 | 0.00 | 82 | 1010.2 |
| 20260504213307 | 56 | 189 | 13.0 | 24.0 | 0.00 | 0.00 | 0.00 | 82 | 1010.3 |
| 20260504212806 | 56 | 200 | 14.0 | 21.0 | 0.00 | 0.00 | 0.00 | 82 | 1010.4 |
| 20260504211806 | 57 | 190 | 12.0 | 24.0 | 0.00 | 0.00 | 0.00 | 82 | 1010.3 |
| 20260504211306 | 57 | 199 | 12.0 | 18.0 | 0.00 | 0.00 | 0.00 | 82 | 1010.4 |
| 20260504210806 | 57 | 201 | 11.0 | 21.0 | 0.00 | 0.00 | 0.00 | 82 | 1010.3 |
| 20260504204306 | 57 | 202 | 12.0 | 21.0 | 0.00 | 0.00 | 0.00 | 82 | 1010.3 |
| 20260504203306 | 57 | 199 | 12.0 | 20.0 | 0.00 | 0.00 | 0.00 | 82 | 1010.3 |
| 20260504202807 | 56 | 201 | 12.0 | 21.0 | 0.00 | 0.00 | 0.00 | 82 | 1010.2 |
| 20260504202306 | 56 | 193 | 12.0 | 21.0 | 0.00 | 0.00 | 0.00 | 82 | 1010.2 |
| 20260504200808 | 57 | 191 | 14.0 | 20.0 | 0.00 | 0.00 | 0.00 | 81 | 1010.3 |
| 20260504195806 | 57 | 184 | 13.0 | 22.0 | 0.00 | 0.00 | 0.00 | 81 | 1010.5 |
| 20260504191806 | 57 | 190 | 13.0 | 20.0 | 0.00 | 0.00 | 0.00 | 79 | 1010.8 |
| 20260504191306 | 57 | 179 | 12.0 | 20.0 | 0.00 | 0.00 | 0.00 | 79 | 1010.9 |
| 20260504185806 | 58 | 196 | 13.0 | 18.0 | 0.00 | 0.00 | 0.00 | 78 | 1011.0 |
| 20260504183806 | 58 | 202 | 16.0 | 23.0 | 0.00 | 0.00 | 0.00 | 76 | 1011.4 |
| 20260504181806 | 58 | 195 | 12.0 | 20.0 | 0.00 | 0.00 | 0.00 | 77 | 1011.6 |
| 20260504175806 | 58 | 195 | 13.0 | 21.0 | 0.00 | 0.00 | 0.00 | 78 | 1011.8 |
| 20260504175306 | 58 | 191 | 11.0 | 25.0 | 0.00 | 0.00 | 0.00 | 78 | 1011.9 |
| 20260504174807 | 58 | 190 | 14.0 | 25.0 | 0.00 | 0.00 | 0.00 | 78 | 1012.0 |
| 20260504174306 | 58 | 194 | 13.0 | 21.0 | 0.00 | 0.00 | 0.00 | 79 | 1012.0 |
| 20260504173807 | 58 | 176 | 11.0 | 18.0 | 0.00 | 0.00 | 0.00 | 78 | 1012.1 |
| 20260504173307 | 58 | 191 | 12.0 | 23.0 | 0.00 | 0.00 | 0.00 | 79 | 1012.0 |
| 20260504172306 | 58 | 202 | 12.0 | 20.0 | 0.00 | 0.00 | 0.00 | 78 | 1012.1 |
| 20260504150306 | 57 | 194 | 13.0 | 20.0 | 0.00 | 0.00 | 0.00 | 77 | 1013.4 |
| 20260504141307 | 57 | 191 | 10.0 | 18.0 | 0.00 | 0.00 | 0.00 | 78 | 1013.7 |
| 20260504140306 | 57 | 189 | 10.0 | 17.0 | 0.00 | 0.00 | 0.00 | 77 | 1013.8 |
| 20260504130806 | 57 | 217 | 9.0 | 14.0 | 0.00 | 0.00 | 0.00 | 72 | 1014.2 |
| 20260504130306 | 57 | 225 | 8.0 | 13.0 | 0.00 | 0.00 | 0.00 | 73 | 1014.2 |
| 20260504120306 | 55 | 226 | 9.0 | 14.0 | 0.00 | 0.00 | 0.00 | 74 | 1014.6 |
| 20260504100305 | 52 | 241 | 7.0 | 14.0 | 0.00 | 0.00 | 0.00 | 76 | 1014.7 |
| 20260504081806 | 52 | 243 | 10.0 | 16.0 | 0.00 | 0.00 | 0.00 | 72 | 1014.6 |
| 20260504080805 | 52 | 240 | 9.0 | 16.0 | 0.00 | 0.00 | 0.00 | 72 | 1014.7 |
| 20260504070306 | 53 | 243 | 10.0 | 17.0 | 0.00 | 0.00 | 0.00 | 65 | 1014.1 |
| 20260504045805 | 52 | 237 | 9.0 | 15.0 | 0.00 | 0.00 | 0.00 | 61 | 1013.8 |
| 20260504045306 | 52 | 241 | 10.0 | 15.0 | 0.00 | 0.00 | 0.00 | 60 | 1013.8 |
| 20260504044305 | 52 | 241 | 6.0 | 12.0 | 0.00 | 0.00 | 0.00 | 61 | 1013.8 |
| 20260504041305 | 53 | 232 | 10.0 | 16.0 | 0.00 | 0.00 | 0.00 | 56 | 1013.6 |
| 20260504040836 | 53 | 238 | 9.0 | 16.0 | 0.00 | 0.00 | 0.00 | 57 | 1013.6 |
| 20260504040307 | 53 | 236 | 8.0 | 14.0 | 0.00 | 0.00 | 0.00 | 57 | 1013.6 |
| 20260504035806 | 53 | 235 | 7.0 | 16.0 | 0.00 | 0.00 | 0.00 | 55 | 1013.5 |
| 20260504035306 | 53 | 244 | 8.0 | 13.0 | 0.00 | 0.00 | 0.00 | 54 | 1013.4 |
| 20260504034805 | 53 | 248 | 9.0 | 15.0 | 0.00 | 0.00 | 0.00 | 56 | 1013.3 |
| 20260504034305 | 53 | 244 | 10.0 | 17.0 | 0.00 | 0.00 | 0.00 | 54 | 1013.3 |
| 20260504033805 | 53 | 238 | 9.0 | 16.0 | 0.00 | 0.00 | 0.00 | 54 | 1013.3 |
| 20260504033305 | 53 | 245 | 10.0 | 15.0 | 0.00 | 0.00 | 0.00 | 54 | 1013.2 |
| 20260504030805 | 53 | 245 | 7.0 | 15.0 | 0.00 | 0.00 | 0.00 | 55 | 1013.3 |
| 20260504025805 | 53 | 242 | 8.0 | 13.0 | 0.00 | 0.00 | 0.00 | 57 | 1013.2 |
| 20260504025306 | 53 | 244 | 8.0 | 12.0 | 0.00 | 0.00 | 0.00 | 56 | 1013.3 |
| 20260504023305 | 54 | 225 | 7.0 | 13.0 | 0.00 | 0.00 | 0.00 | 54 | 1013.2 |
| 20260504022306 | 54 | 247 | 8.0 | 12.0 | 0.00 | 0.00 | 0.00 | 53 | 1013.2 |
| 20260504021806 | 54 | 241 | 9.0 | 13.0 | 0.00 | 0.00 | 0.00 | 54 | 1013.2 |
| 20260504020806 | 54 | 249 | 6.0 | 12.0 | 0.00 | 0.00 | 0.00 | 53 | 1013.2 |
| 20260504015306 | 54 | 253 | 9.0 | 12.0 | 0.00 | 0.00 | 0.00 | 52 | 1013.2 |
| 20260504013806 | 55 | 242 | 7.0 | 12.0 | 0.00 | 0.00 | 0.00 | 53 | 1013.1 |
| 20260504012806 | 55 | 250 | 6.0 | 10.0 | 0.00 | 0.00 | 0.00 | 52 | 1013.0 |
| 20260504011306 | 56 | 239 | 7.0 | 12.0 | 0.00 | 0.00 | 0.00 | 48 | 1012.7 |
| 20260504010306 | 56 | 238 | 6.0 | 10.0 | 0.00 | 0.00 | 0.00 | 49 | 1012.5 |
| 20260504002306 | 56 | 237 | 5.0 | 8.0 | 0.00 | 0.00 | 0.00 | 47 | 1012.2 |